This demonstration page uses our WeatherBlox Daily Observations layout. Learn more.

39.92423, -83.80882

Hourly Observations for December 20, 2018

Temp ( °F °C ) Dew Point ( °F °C ) Humidity (%) Winds ( mph kmh ) Pressure ( in mb ) Visibility ( mi km ) Precip ( " mm )
12:56 am 00:56 Clear 40 4.4 34 1.1 79 79 SSE 7 11 29.88 1012 10 16.0934 0 0
1:56 am 01:56 Clear 41 5 34 1.1 76 76 SSE 6 9 29.87 1012 10 16.0934 0 0
2:56 am 02:56 Clear 40 4.4 34 1.1 79 79 SSE 6 9 29.87 1012 10 16.0934 0 0
3:56 am 03:56 Partly Cloudy 41 5 35 1.7 79 79 SSE 5 7 29.85 1011 10 16.0934 0 0
4:56 am 04:56 Cloudy 41 5 35 1.7 79 79 SSE 6 9 29.83 1010 10 16.0934 0 0
5:56 am 05:56 Cloudy 41 5 36 2.2 82 82 SSE 7 11 29.84 1011 10 16.0934 0 0
6:24 am 06:24 Cloudy 41 5 36 2 81 81 SSE 6 9 29.85 1011 10 16.0934 0 0
6:32 am 06:32 Cloudy 41 5 36 2 81 81 S 3 6 29.85 1011 10 16.0934 0 0
6:56 am 06:56 Cloudy with Light Rain 42 5.6 37 2.8 82 82 SSW 6 9 29.85 1011 10 16.0934 0 0.0254
7:56 am 07:56 Cloudy with Light Rain 40 4.4 39 3.9 97 97 Calm 29.84 1011 10 16.0934 0.05 1.27
8:56 am 08:56 Cloudy with Light Rain 40 4.4 40 4.4 100 100 SE 7 11 29.84 1011 10 16.0934 0.02 0.508
9:56 am 09:56 Cloudy 42 5.6 42 5.6 100 100 SSW 5 7 29.83 1010 10 16.0934 0 0.0254
10:56 am 10:56 Cloudy with Light Rain 44 6.7 43 6.1 96 96 SE 7 11 29.81 1009 10 16.0934 0 0.0254
11:56 am 11:56 Cloudy with Light Rain 45 7.2 44 6.7 97 97 ESE 8 13 29.77 1008 10 16.0934 0 0.0254
12:56 pm 12:56 Cloudy 45 7.2 43 6.1 93 93 ESE 10 17 29.72 1007 10 16.0934 0 0.0254
1:56 pm 13:56 Cloudy 46 7.8 44 6.7 93 93 E 7 11 29.69 1005 10 16.0934 0 0
2:56 pm 14:56 Cloudy with Light Rain 45 7.2 44 6.7 97 97 ENE 5 7 29.68 1005 10 16.0934 0 0.0254
3:56 pm 15:56 Cloudy with Light Rain 44 6.7 43 6.1 96 96 ENE 7 11 29.65 1004 10 16.0934 0.02 0.508
4:56 pm 16:56 Cloudy with Light Rain 44 6.7 43 6.1 96 96 NE 8 13 29.62 1003 9 14.48406 0.04 1.016
5:56 pm 17:56 Cloudy with Rain 43 6.1 42 5.6 97 97 NNE 9 15 29.6 1002 9 14.48406 0.05 1.27
6:56 pm 18:56 Cloudy with Rain 42 5.6 42 5.6 100 100 NNE 8 13 29.59 1002 6 9.65604 0.07 1.778
7:52 pm 19:52 Cloudy with Rain 43 6 43 6 100 100 NE 12 19 29.56 1001 7 11.26538 0.1 2.54
7:56 pm 19:56 Cloudy with Rain 43 6.1 42 5.6 97 97 NE 12 19 29.55 1001 7 11.26538 0.11 2.794
8:42 pm 20:42 Cloudy with Light Rain 43 6 43 6 100 100 NNE 12 19 29.53 1000 7 11.26538 0.08 2.032
8:56 pm 20:56 Cloudy with Rain 42 5.6 42 5.6 100 100 NNE 13 20 29.5 999 7 11.26538 0.1 2.54
9:56 pm 21:56 Cloudy with Light Rain 42 5.6 42 5.6 100 100 NNE 14 22 29.47 998 10 16.0934 0.07 1.778
10:56 pm 22:56 Cloudy with Rain 42 5.6 42 5.6 100 100 N 10 17 29.45 997 10 16.0934 0.11 2.794
11:56 pm 23:56 Cloudy with Light Rain 42 5.6 42 5.6 100 100 N 12 19 29.42 996 10 16.0934 0.09 2.286

Powered by AerisWeather